{"data":{"norad_id":49311,"intl_designator":"2021-090AJ","name":"ONEWEB-0385","alt_names":[],"object_type":"PAYLOAD","status":"ACTIVE","operator":null,"country":"UK","launch_date":"2021-10-14","launch_site_code":"VOSTO","launch_vehicle":null,"mission":null,"orbit_class":"UNKNOWN","rcs_meters":null,"size_class":null,"mass_kg":null,"dimensions":null,"purposes":["comms"],"wikipedia_slug":null,"has_3d_model":false,"image_url":null,"decayed_at":null,"tle_current":{"epoch":"2026-09-20T05:07:27.460128Z","epoch_age_seconds":39275,"freshness":"FRESH","line1":"1 49311U 21090AJ  26263.21351227  .00000051  00000+0  92343-4 0  9992","line2":"2 49311  87.9146 255.4823 0002139  90.8543 269.2835 13.20770601242345","mean_motion":13.20770601,"eccentricity":0.0002139,"inclination_deg":87.9146,"raan_deg":255.4823,"arg_perigee_deg":90.8543,"mean_anomaly_deg":269.2835,"bstar":9.2343e-5,"rev_number":24234,"period_min":109.02726021534,"perigee_km":1180.1609315411,"apogee_km":1183.3950631769,"semimajor_km":7559.914997359,"source":"CELESTRAK","updated_at":"2026-09-20T09:00:44.675522Z"}}}